Date String (YYYY-MM-DD hh:mm:ss) UTC,Instrument flags,absolute air pressure of the measurement (hPa),sample flow rate (lpm),inlet stack bypass flow (lpm),air temperature of the measurement (°C),ambient temperature measured by the external sensor (°C),aerosol sample conditioner tube jacket temperature (°C),OPC LED temperature (°C),internal box temperature (°C),relative humidity of the measurement (%),span deviation,mass concentration of particles derived from Lorenz-Mie calculation of OPC scattering (μg/m³),mass concentration of particles derived from Lorenz-Mie calculation of OPC scattering (μg/m³),mass concentration of particles derived from Lorenz-Mie calculation of OPC scattering (μg/m³)
DateTimeUTC,F1_M11,P_M11,Q1_M11,Q2_M11,T1_M11,T2_M11,T3_M11,T4_M11,T5_M11,U1_M11,ZSPAN_M11,X0_M11,X2_M11,X1_M11
2024-05-20 08:00:00,SystemResetWarning,0826.6,5.00,000.00,024.8,024.3,000.0,033.0,026.7,026.2,0000.0,0016.35,0004.65,0003.21
2024-05-20 08:01:00,SystemResetWarning,0826.6,4.99,000.00,024.9,024.3,000.0,033.0,026.7,026.0,0000.0,0016.59,0004.71,0003.22
2024-05-20 08:02:00,SystemResetWarning,0826.6,4.99,000.00,024.9,024.4,000.0,033.0,026.8,025.7,0000.0,0016.49,0004.72,0003.22
2024-05-20 08:03:00,SystemResetWarning,0826.6,5.01,000.00,025.0,024.4,000.0,033.0,026.8,025.3,0000.0,0016.18,0004.71,0003.21
2024-05-20 08:04:00,SystemResetWarning,0826.8,5.01,000.00,025.0,024.5,000.0,033.1,026.9,025.1,0000.0,0017.81,0004.72,0003.23
2024-05-20 08:05:00,SystemResetWarning,0826.8,4.99,000.00,025.0,024.5,000.0,033.1,026.9,024.4,0000.0,0018.51,0004.75,0003.25
2024-05-20 08:06:00,SystemResetWarning,0826.8,5.00,000.00,025.1,024.6,000.0,033.1,026.9,024.4,0000.0,0017.94,0004.80,0003.28
2024-05-20 08:07:00,SystemResetWarning,0826.8,5.00,000.00,025.1,024.6,000.0,033.1,027.0,024.8,0000.0,0017.59,0004.73,0003.28
2024-05-20 08:08:00,SystemResetWarning,0826.8,4.99,000.00,025.2,024.7,000.0,033.2,027.0,025.2,0000.0,0017.58,0004.75,0003.30
2024-05-20 08:09:00,SystemResetWarning,0826.8,4.99,000.00,025.2,024.7,000.0,033.2,027.0,025.3,0000.0,0017.85,0004.76,0003.29
2024-05-20 08:10:00,SystemResetWarning,0826.9,5.00,000.00,025.2,024.7,000.0,033.2,027.1,025.4,0000.0,0019.04,0004.68,0003.29
2024-05-20 08:11:00,SystemResetWarning,0826.9,5.00,000.00,025.3,024.8,000.0,033.3,027.1,025.4,0000.0,0019.17,0004.72,0003.29
2024-05-20 08:12:00,SystemResetWarning,0826.9,5.00,000.00,025.3,024.8,000.0,033.3,027.2,025.3,0000.0,0018.63,0004.73,0003.28
2024-05-20 08:13:00,SystemResetWarning,0826.9,5.00,000.00,025.3,024.8,000.0,033.3,027.2,025.2,0000.0,0018.96,0004.66,0003.26
2024-05-20 08:14:00,SystemResetWarning,0827.0,5.00,000.00,025.4,024.9,000.0,033.4,027.2,025.2,0000.0,0020.45,0004.65,0003.24
2024-05-20 08:15:00,SystemResetWarning,0827.0,5.00,000.00,025.4,024.9,000.0,033.4,027.2,025.1,0000.0,0018.65,0004.61,0003.21
2024-05-20 08:16:00,SystemResetWarning,0827.0,5.00,000.00,025.4,024.9,000.0,033.4,027.3,025.1,0000.0,0018.05,0004.55,0003.18
2024-05-20 08:17:00,SystemResetWarning,0827.0,4.99,000.00,025.3,023.9,000.0,033.5,026.7,025.1,0000.0,0017.35,0004.50,0003.14
2024-05-20 08:18:00,SystemResetWarning,0826.9,5.01,000.00,024.9,021.8,000.0,033.5,025.6,025.8,0000.0,0017.68,0004.52,0003.11
2024-05-20 08:19:00,SystemResetWarning,0826.9,5.01,000.00,024.6,021.6,000.0,033.5,025.3,026.3,0000.0,0018.13,0004.55,0003.08
2024-05-20 08:20:00,SystemResetWarning,0827.0,5.00,000.00,024.5,021.9,000.0,033.3,025.4,026.4,0000.0,0018.74,0004.53,0003.04
2024-05-20 08:21:00,SystemResetWarning,0827.0,5.00,000.00,024.4,022.3,000.0,033.2,025.7,026.5,0000.0,0018.82,0004.51,0003.00
2024-05-20 08:22:00,SystemResetWarning,0827.0,5.00,000.00,024.5,022.6,000.0,033.1,025.9,026.5,0000.0,0019.63,0004.45,0002.96
2024-05-20 08:23:00,SystemResetWarning,0827.0,5.00,000.00,024.5,022.9,000.0,033.0,026.1,026.5,0000.0,0019.29,0004.38,0002.92
2024-05-20 08:24:00,SystemResetWarning,0827.0,5.00,000.00,024.5,023.2,000.0,033.0,026.2,026.5,0000.0,0018.57,0004.34,0002.93
2024-05-20 08:25:00,SystemResetWarning,0827.1,5.00,000.00,024.5,023.4,000.0,033.0,026.3,026.4,0000.0,0017.16,0004.32,0002.94
2024-05-20 08:26:00,SystemResetWarning,0827.0,4.98,000.00,024.6,023.6,000.0,033.0,026.3,026.3,0000.0,0016.86,0004.31,0002.94
2024-05-20 08:27:00,SystemResetWarning,0827.1,4.99,000.00,024.6,023.7,000.0,032.9,026.4,026.2,0000.0,0016.86,0004.27,0002.92
2024-05-20 08:28:00,SystemResetWarning,0827.1,5.00,000.00,024.7,023.9,000.0,033.0,026.5,026.1,0000.0,0016.91,0004.29,0002.89
2024-05-20 08:29:00,SystemResetWarning,0827.1,5.01,000.00,024.7,024.0,000.0,033.0,026.6,026.0,0000.0,0016.96,0004.31,0002.89
2024-05-20 08:30:00,SystemResetWarning,0827.1,4.99,000.00,024.7,024.1,000.0,033.0,026.6,026.0,0000.0,0017.11,0004.28,0002.87
2024-05-20 08:31:00,SystemResetWarning,0827.1,4.99,000.00,024.8,024.1,000.0,033.0,026.6,025.9,0000.0,0017.17,0004.33,0002.86
2024-05-20 08:32:00,SystemResetWarning,0827.2,5.00,000.00,024.8,024.2,000.0,033.0,026.7,025.9,0000.0,0015.82,0004.37,0002.87
2024-05-20 08:33:00,SystemResetWarning,0827.2,5.00,000.00,024.9,024.3,000.0,033.0,026.7,025.8,0000.0,0014.49,0004.41,0002.88
2024-05-20 08:34:00,SystemResetWarning,0827.2,5.00,000.00,024.9,024.3,000.0,033.0,026.8,025.8,0000.0,0014.61,0004.44,0002.86
2024-05-20 08:35:00,SystemResetWarning,0827.2,5.00,000.00,024.9,024.4,000.0,033.1,026.8,025.8,0000.0,0015.00,0004.43,0002.85
2024-05-20 08:36:00,SystemResetWarning,0827.2,5.00,000.00,025.0,024.4,000.0,033.1,026.8,025.6,0000.0,0015.71,0004.46,0002.83
2024-05-20 08:37:00,SystemResetWarning,0827.2,5.00,000.00,025.0,024.5,000.0,033.1,026.9,025.5,0000.0,0015.52,0004.45,0002.81
2024-05-20 08:38:00,SystemResetWarning,0827.3,4.99,000.00,025.0,024.5,000.0,033.1,026.9,025.5,0000.0,0015.56,0004.50,0002.82
2024-05-20 08:39:00,SystemResetWarning,0827.3,4.99,000.00,025.1,024.5,000.0,033.2,026.9,025.6,0000.0,0015.24,0004.51,0002.83
2024-05-20 08:40:00,SystemResetWarning,0827.3,5.01,000.00,025.1,024.6,000.0,033.2,026.9,025.4,0000.0,0014.86,0004.52,0002.83
2024-05-20 08:41:00,SystemResetWarning,0827.3,5.01,000.00,025.1,024.6,000.0,033.2,027.0,025.2,0000.0,0015.01,0004.50,0002.82
2024-05-20 08:42:00,SystemResetWarning,0827.3,5.00,000.00,025.2,024.6,000.0,033.3,027.0,025.2,0000.0,0015.04,0004.45,0002.81
2024-05-20 08:43:00,SystemResetWarning,0827.2,5.00,000.00,025.2,024.6,000.0,033.3,027.0,025.3,0000.0,0015.16,0004.44,0002.81
2024-05-20 08:44:00,SystemResetWarning,0827.3,4.99,000.00,025.2,024.7,000.0,033.3,027.1,025.2,0000.0,0016.16,0004.45,0002.81
2024-05-20 08:45:00,SystemResetWarning,0827.3,4.99,000.00,025.2,024.7,000.0,033.3,027.1,024.9,0000.0,0016.70,0004.42,0002.83
2024-05-20 08:46:00,SystemResetWarning,0827.2,5.00,000.00,025.3,024.7,000.0,033.3,027.1,024.8,0000.0,0016.51,0004.47,0002.83
2024-05-20 08:47:00,SystemResetWarning,0827.3,5.01,000.00,025.3,024.7,000.0,033.4,027.1,024.9,0000.0,0016.05,0004.48,0002.82
2024-05-20 08:48:00,SystemResetWarning,0827.4,5.01,000.00,025.3,024.7,000.0,033.4,027.1,024.8,0000.0,0016.24,0004.53,0002.84
2024-05-20 08:49:00,SystemResetWarning,0827.4,5.00,000.00,025.3,024.7,000.0,033.4,027.1,024.9,0000.0,0017.02,0004.59,0002.84
2024-05-20 08:50:00,SystemResetWarning,0827.4,4.99,000.00,025.3,024.8,000.0,033.4,027.2,024.9,0000.0,0017.45,0004.54,0002.85
2024-05-20 08:51:00,SystemResetWarning,0827.4,4.99,000.00,025.3,024.8,000.0,033.4,027.2,024.8,0000.0,0017.75,0004.47,0002.83
2024-05-20 08:52:00,SystemResetWarning,0827.4,5.00,000.00,025.4,024.8,000.0,033.5,027.2,024.8,0000.0,0017.94,0004.48,0002.82
2024-05-20 08:53:00,SystemResetWarning,0827.4,5.01,000.00,025.4,024.8,000.0,033.5,027.2,024.6,0000.0,0016.86,0004.49,0002.84
2024-05-20 08:54:00,SystemResetWarning,0827.6,5.01,000.00,025.4,024.8,000.0,033.5,027.2,024.6,0000.0,0016.51,0004.45,0002.84
2024-05-20 08:55:00,SystemResetWarning,0827.6,5.00,000.00,025.4,024.8,000.0,033.5,027.3,024.7,0000.0,0015.79,0004.45,0002.84
2024-05-20 08:56:00,SystemResetWarning,0827.5,5.00,000.00,025.4,024.9,000.0,033.5,027.3,024.7,0000.0,0015.25,0004.44,0002.82
2024-05-20 08:57:00,SystemResetWarning,0827.6,4.99,000.00,025.5,024.9,000.0,033.6,027.3,024.8,0000.0,0016.53,0004.42,0002.81
2024-05-20 08:58:00,SystemResetWarning,0827.7,5.00,000.00,025.5,024.9,000.0,033.6,027.3,024.8,0000.0,0016.28,0004.38,0002.81
2024-05-20 08:59:00,SystemResetWarning,0827.7,5.00,000.00,025.5,024.9,000.0,033.6,027.3,024.8,0000.0,0016.78,0004.37,0002.81
